Current Version              Previous Version:    01  02  03  04  05  06  07  08  09  10  11  12  13  14  15  16  17  18  19  20  21  22  23  24  25  26  27  28  29  30  
   31  32  33  34  35  36  37  38  39  40  41  42  43  44  45  46  47  48  49  50  51  52  53  54  55  56  57  58  59  60  

[Printable]
418
ASUS44 KLUB 300201
RWRTX
WEST TEXAS WEATHER ROUNDUP
NATIONAL WEATHER SERVICE LUBBOCK TX
900 PM CDT FRI AUG 29 2014

NOTE: "FAIR" INDICATES FEW OR NO CLOUDS BELOW 12,000 FEET WITH NO
SIGNIFICANT WEATHER AND/OR OBSTRUCTIONS TO VISIBILITY.

TXZ004-006>008-010-012-014-016-OKZ002-300300-
TEXAS PANHANDLE/OKLAHOMA PANHANDLE

CITY           SKY/WX    TMP DP  RH WIND       PRES   REMARKS
AMARILLO       CLEAR     78  48  34 E8        30.00R
BORGER         CLEAR     84  47  27 SE9       29.96R
CANADIAN       CLEAR     78  59  52 E5        29.92R
DALHART        CLEAR     77  52  41 E6        30.02R
DUMAS          CLEAR     76  46  34 E3        30.00S
GUYMON         CLEAR     81  47  30 N3        29.95R
HEREFORD       CLEAR     76  47  35 NE8       30.02R
PAMPA          CLEAR     74  52  45 SE7       29.99R
PERRYTON       CLEAR     72  60  64 E6        29.96R
$$

TXZ026-029-035-045-048-300300-
SOUTHERN PANHANDLE/SOUTH PLAINS/ROLLING PLAINS

CITY           SKY/WX    TMP DP  RH WIND       PRES   REMARKS
CHILDRESS      CLEAR     77  66  68 S8        29.92R
SEMINOLE       CLEAR     82  57  43 E7        30.00R
LUBBOCK        PTCLDY    79  62  56 SE8       29.98R
PLAINVIEW      CLEAR     76  63  64 SE8       29.99R
SNYDER         PTCLDY    78  66  65 E5        29.96R
$$

TXZ052-054-060>062-072-078-127-140-154-169-300300-
PERMIAN BASIN/CONCHO VALLEY/BIG COUNTRY/EDWARDS PLATEAU

CITY           SKY/WX    TMP DP  RH WIND       PRES   REMARKS
ABILENE        MOCLDY    80  66  62 NE6       29.94R
BIG SPRING     CLEAR     82  68  62 NE9       29.97R
BRADY          MOCLDY    82  66  57 NE6       29.91R
BROWNWOOD      MOCLDY    81  70  69 NE5       29.91R
JUNCTION       CLOUDY    80  66  62 W3        29.90R
MIDLAND        CLEAR     85  63  47 E9        29.95R
ODESSA         CLEAR     85  62  46 E10       29.96R
SAN ANGELO     MOCLDY    77  67  71 SW6       29.91R
SONORA         CLOUDY    77  70  78 CALM      29.98R
SWEETWATER     PTCLDY    74  70  87 E3        29.99R
WINK           CLEAR     90  57  32 E9        29.91R
$$

TXZ055-058-074-075-080-082-300300-
FAR WEST/SOUTHWEST MOUNTAINS/TRANS PECOS

CITY           SKY/WX    TMP DP  RH WIND       PRES   REMARKS
ALPINE         CLEAR     78  46  31 NE6       30.09R
DRYDEN           N/A     90  62  39 SE9       29.87R
EL PASO        PTCLDY    87  44  22 SE5       29.96R
FORT STOCKTON  PTCLDY    86  54  33 E8        29.93R
GUADALUPE PASS CLEAR     75  45  34 NE10      30.12R
MARFA          CLEAR     77  43  29 NE10      30.08R
PRESIDIO       FAIR      93  53  25 MISG      29.87R
$$

TXZ014-016-019-021>030-083-300300
TEXAS TECH WEST TEXAS MESONET/TEXAS PANHANDLE/NORTHERN SOUTH PLAINS

CITY           SKY/WX    TMP DP  RH WIND       PRES   REMARKS
ABERNATHY 5ENE   N/A     76  62  62 SE6       29.99R
AMARILLO 9NNE    N/A     73  55  53 E5        29.98R
AMARILLO 7SSE    N/A     74  49  41 E7        30.01R
AMHERST 1NE      N/A     78  44  29 E2        29.99S
BOOTLEG 11WNW    N/A     74  41  30 W3        30.06R
CANADIAN 6E      N/A     73  60  63 NE9       29.92R
CAPROCK CYN SP   N/A     76  64  64 S7        29.95R
CHILDRESS 2NNE   N/A     78  65  64 SE7       29.90R
CLARENDON 2WSW   N/A     74  62  65 SE6       29.95R
CLAUDE 12SW      N/A     76  54  46 NE8       29.99R
DIMMITT 2NE      N/A     78  39  24 E5        30.01R
FLOYDADA 2NNE    N/A     74  65  72 SE7       29.98R
FRIONA 2NE       N/A     75  47  36 SE7       30.03R
GOODLETT 3W      N/A     80  69  67 SE8       29.89R
HART 3N          N/A     73  54  51 E6        30.01R
HEREFORD 2NW     N/A     78  42  28 E2        30.01R
MCLEAN 1E        N/A     75  53  45 E7        29.95R
MEMPHIS 1NE      N/A     78  66  67 E5        29.91R
MULESHOE 2SSW    N/A     73  45  37 E3        30.00R
OLTON 6S         N/A     73  54  49 SE7       29.99R
PALO DURO SP     N/A     81  48  31 NE1       30.00R
PAMPA 2E         N/A     73  57  57 E7        29.97R
PLAINVIEW 1S     N/A     78  64  62 SE8       29.98R
SILVERTON 7ESE   N/A     77  59  54 SE7       29.98R
TULIA 2ENE       N/A     76  45  32 E7        29.99R
TURKEY 2WSW      N/A     79  63  58 SE5       29.93R
UMBARGER 3NNE    N/A     78  41  26 N6        30.01R
$$

TXZ033>036-039>041-045>048-300300
TEXAS TECH WEST TEXAS MESONET/SOUTH PLAINS

CITY           SKY/WX    TMP DP  RH WIND       PRES   REMARKS
AIKEN 3WSW       N/A     73  66  79 SE6       30.00R
ANDREWS 2NE      N/A     83  54  36 NE6       29.98R
ANTON 6SSW       N/A     79  60  51 SE7       29.98S
BROWNFIELD 2S    N/A     80  61  52 SE8       29.99R
DENVR CTY 7WNW   N/A     78  56  46 E7        30.00R
GAIL 2ESE        N/A     80  68  65 SE6       29.95R
LAMESA 2SE       N/A     82  63  52 E7        29.97R
LEVELLAND 4S     N/A     77  59  53 E7        29.99S
LUBBOCK 3WNW     N/A     79  59  50 SE6       29.98R
MORTON 1ENE      N/A     75  46  35 E7        30.00R
ODONNELL 1N      N/A     82  59  45 E8        29.98R
PLAINS 3N        N/A     81  56  42 E10       30.01R
RALLS 1SE        N/A     76  65  68 SE7       29.99R
REESE CENTER     N/A     80  59  48 SE10      29.98R
SEAGRAVES 1SW    N/A     82  58  42 E5        29.99R
SEMINOLE 2NNE    N/A     83  58  42 E9        29.98R
SLATON 2NE       N/A     76  63  63 SE8       29.98R
SNYDER 3E        N/A     76  67  74 E7        29.95R
SUNDOWN 8SW      N/A     77  45  31 E8        30.00R
TAHOKA 3NNE      N/A     80  61  51 E9        29.97R
WOLFFORTH 6SSW   N/A     78  60  54 E7        29.99R
$$

TXZ031-032-036>038-042>044-300300-
TEXAS TECH WEST TEXAS MESONET/ROLLING PLAINS

CITY           SKY/WX    TMP DP  RH WIND       PRES   REMARKS
ASPERMONT 3NE    N/A     78  68  71 SE5       29.92R
FLUVANNA 3WNW    N/A     79  66  62 E8        29.97R
GRAHAM 5SSW      N/A     81  61  51 E7        29.96S
GUTHRIE 10WSW    N/A     78  69  73 SE7       29.92R
HASKELL 1NW      N/A     79  69  72 E5        29.91R
JAYTON 1SSE      N/A     78  70  75 SE7       29.93R
KNOX CITY 3NW    N/A     79  69  73 SE7       29.91R
LK A HENRY 1NW   N/A     80  66  61 E6        29.94R
NORTHFIELD 1S    N/A     78  68  70 SE8       29.91R
ODELL 4ENE       N/A     79  71  76 SE7       29.89R
PADUCAH 10SW     N/A     77  69  76 S7        29.91R
POST 1NE         N/A     81  59  47 E7        29.95R
RRING SPRGS 3N   N/A     77  67  71 S6        29.95R
SEYMOUR 3NW      N/A     79  70  74 SE6       29.90R
SPUR 1W          N/A     79  64  61 SE2       29.93R
WEINERT 2NNE     N/A     77  72  82 SE5       29.91S
WHITE RVR 6NE    N/A     78  65  64 E8        29.96R
$$

TXZ052-054-060>062-072-078-127-140-154-169-300300-
TEXAS TECH WEST TEXAS MESONET/PERMIAN BASIN/
CONCHO VALLEY/BIG COUNTRY/EDWARDS PLATEAU

CITY           SKY/WX    TMP DP  RH WIND       PRES   REMARKS
JUNCTION 1SSW    N/A     82  67  59 E3        29.90R
MERTZON 3NNE     N/A     73  68  84 SW3       29.93R
SAN ANGELO 7NW   N/A     76  67  73 NW3       29.91R
STRLNG CT 4WSW   N/A     81  70  70 E6        29.94R
ST LAWRNCE 5SW   N/A     78  62  58 E6        29.95R
SWEETWATR 11SW   N/A     72  70  93 NE9       29.97R
WALL 1E          N/A     76  66  71 E1        29.91R
$$

TXZ055-058-074-075-080-082-300300-
TEXAS TECH WEST TEXAS MESONET/FAR WEST/SOUTHWEST MOUNTAINS/TRANS PECOS

CITY           SKY/WX    TMP DP  RH WIND       PRES   REMARKS
PRSMN GAP BBNP   N/A     90  58  34 NE6       29.89R
GUADLPE MTN NP   N/A     74  43  32 N6        30.13R
$$



354
ASUS44 KFWD 300201
RWRTX
NORTH TEXAS HOURLY WEATHER ROUNDUP
NATIONAL WEATHER SERVICE FORT WORTH TX
900 PM CDT FRI AUG 29 2014

NOTE: "FAIR" INDICATES FEW OR NO CLOUDS BELOW 12,000 FEET WITH NO
SIGNIFICANT WEATHER AND/OR OBSTRUCTIONS TO VISIBILITY.

TXZ118-119-300300-
DALLAS/FORT WORTH METROPLEX

CITY           SKY/WX    TMP DP  RH WIND       PRES   REMARKS
DFW AIRPORT    CLOUDY    83  69  62 SE5       29.87R
DALLAS LOVE    MOCLDY    83  70  64 SE5       29.87R
FTW MEACHAM    CLOUDY    86  69  56 SE6       29.88R HX  90
DAL-EXECUTIVE  MOCLDY    83  70  64 VRB3      29.88R
FTW-ALLIANCE   CLOUDY    83  68  60 NE3       29.88R
FTW-NAS-JRB    MOCLDY    87  66  49 S6        29.93R
FTW-SPINKS     MOCLDY    80  70  70 CALM      29.90R
ARLINGTON      MOCLDY    83  69  62 CALM      29.88R
GRAND PRAIRIE  MOCLDY    83  66  55 CALM      29.89R
LANCASTER      MOCLDY    75  72  89 CALM      29.89R
$$

TXZ091>094-102>105-117-120-121-131>134-300300-
NORTH CENTRAL TEXAS

CITY           SKY/WX    TMP DP  RH WIND       PRES   REMARKS
SHRMAN/DENISON MOCLDY    82  68  63 S5        29.90R
GAINESVILLE    CLOUDY    79  73  82 CALM      29.92R
BRIDGEPORT     MOCLDY    78  71  78 CALM      29.92R
DECATUR        MOCLDY    79  71  76 CALM      29.91R
DENTON         MOCLDY    82  70  66 S5        29.89R
MCKINNEY       MOCLDY    80  69  69 CALM      29.88R
GREENVILLE     MOCLDY    81  72  74 CALM      29.89R
ROCKWALL       MOCLDY    77  74  90 CALM      29.87S
TERRELL        MOCLDY    82  76  81 CALM      29.88R
WAXAHACHIE     MOCLDY    80  68  67 SE3       29.89S
CLEBURNE       CLOUDY    82  72  69 S3        29.91R
$$

TXZ083>090-098>101-113>116-127>130-139>142-154-155-300300-
WESTERN NORTH TEXAS

CITY           SKY/WX    TMP DP  RH WIND       PRES   REMARKS
WICHITA FALLS  CLEAR     78  69  73 S9        29.88R
WF-KICKAPOO    CLEAR     78  68  70 S6        29.91R
VERNON         CLEAR     80  71  73 SE6       29.91R
ABILENE        MOCLDY    80  66  62 NE6       29.94R
ABILENE-DYESS  MOCLDY    78  71  78 NE3       29.93R
BRECKENRIDGE   MOCLDY    78  68  72 NE3       29.92R
MINERAL WELLS  MOCLDY    81  70  69 NE6       29.89R
STEPHENVILLE   CLOUDY    82  70  66 N5        29.94R
COMANCHE         N/A     79  70  74 E7        29.92R
BROWNWOOD      MOCLDY    81  70  69 NE5       29.91R
COLEMAN        MOCLDY    80  69  70 E3        29.93R
BRADY          MOCLDY    82  66  57 NE6       29.91R
$$

TXZ143>147-156>162-174-175-300300-
CENTRAL TEXAS

CITY           SKY/WX    TMP DP  RH WIND       PRES   REMARKS
WACO           MOCLDY    82  68  62 SE9       29.90R
WACO-TSTC      CLEAR     81  70  69 E10       29.90R
WACO-MCGREGOR  MOCLDY    81  68  65 SE6       29.92R
HILLSBORO      CLOUDY    79  71  76 E7        29.90R
CORSICANA      CLOUDY    80  73  79 S6        29.89R
MEXIA          CLOUDY    78  72  82 CALM      29.90R
HEARNE           N/A     75  73  93 CALM      29.89
CAMERON        MOCLDY    76  72  89 CALM      29.89R
TEMPLE         PTCLDY    79  64  61 SE7       29.90R
KILLEEN        MOCLDY    81  70  69 SE13      29.91R
KILLEEN-SKYLRK PTCLDY    81  64  57 SE7       29.91R
FORT HOOD      PTCLDY    83  67  58 SE8       29.91R
LAMPASAS       PTCLDY    81  71  71 E8        29.91
$$

TXZ095>097-106>112-122>126-135>138-148>153-164>167-300300-
EAST TEXAS

CITY           SKY/WX    TMP DP  RH WIND       PRES   REMARKS
PARIS          CLOUDY    79  64  61 SE6       29.90R
SULPHUR SPRNGS CLOUDY    81  70  68 SE5       29.91R
MOUNT PLEASANT CLOUDY    74  73  94 S3        29.92R
MINEOLA        CLOUDY    81  73  78 S7        29.92R
TYLER          CLOUDY    79  69  71 N3        29.91R
LONGVIEW       CLOUDY    79  70  74 S12       29.91R
MARSHALL       CLOUDY    83  71  68 SE5       29.94R
ATHENS         MOCLDY    75  70  83 CALM      29.90R
PALESTINE      MOCLDY    79  73  82 E6        29.90R
JACKSONVILLE   MOCLDY    75  71  87 SE6       29.94R
HENDERSON      CLOUDY    77  66  68 MISG      29.94R
NACOGDOCHES    MOCLDY    79  72  78 SW3       29.93R
LUFKIN         MOCLDY    79  72  79 E8        29.92R
$$

SUPPLEMENTAL OBSERVATIONS (CENTRAL)

CITY           SKY/WX    TMP DP  RH WIND       PRES   REMARKS
$$

SUPPLEMENTAL OBSERVATIONS (WEST)

CITY           SKY/WX    TMP DP  RH WIND       PRES   REMARKS
$$

SUPPLEMENTAL OBSERVATIONS (EAST)

CITY           SKY/WX    TMP DP  RH WIND       PRES   REMARKS
$$

SUPPLEMENTAL OBSERVATIONS ARE A COLLECTION OF AUTOMATED INSTRUMENTS
THAT ARE MAINTAINED BY A VARIETY OF FEDERAL AND STATE AGENCIES.
CERTAIN ELEMENTS...SUCH AS HUMIDITY VALUES AND SUSTAINED WIND
SPEEDS...MAY BE APPROXIMATED.